This is the latest recevied weather packets stored in our database for station/object KQ7A. If no packets are shown the sender has not sent any weather packets the latest 10 day(s).
| Time | Temp. | Humidity | Pressure | Rain* | Wind** | Luminosity | Snow |
|---|---|---|---|---|---|---|---|
| 1788133110 | 28.89° C | 23% | 1016.4 hPa | 0 mm | - | 425 W/m² | - |
| 1788132806 | 28.89° C | 24% | 1016.3 hPa | 0 mm | - | 437 W/m² | - |
| 1788132501 | 28.89° C | 24% | 1016.6 hPa | 0 mm | - | 446 W/m² | - |
| 1788132196 | 28.33° C | 22% | 1016.4 hPa | 0 mm | - | 460 W/m² | - |
| 1788131892 | 28.33° C | 23% | 1016.6 hPa | 0 mm | - | 462 W/m² | - |
| 1788131587 | 27.22° C | 25% | 1016.7 hPa | 0 mm | - | 453 W/m² | - |
| 1788131282 | 28.33° C | 26% | 1016.8 hPa | 0 mm | - | 89 W/m² | - |
| 1788130977 | 28.89° C | 21% | 1016.8 hPa | 0 mm | - | 502 W/m² | - |
| 1788130676 | 27.78° C | 24% | 1016.4 hPa | 0 mm | - | 518 W/m² | - |
| 1788130372 | 27.78° C | 22% | 1016.9 hPa | 0 mm | - | 72 W/m² | - |
| 1788130070 | 28.33° C | 23% | 1016.8 hPa | 0 mm | - | 547 W/m² | - |
| 1788129766 | 28.33° C | 25% | 1016.8 hPa | 0 mm | - | 560 W/m² | - |
| 1788129463 | 28.89° C | 24% | 1017.1 hPa | 0 mm | - | 569 W/m² | - |
| 1788129158 | 29.44° C | 20% | 1017 hPa | 0 mm | - | 569 W/m² | - |
| 1788128853 | 29.44° C | 20% | 1017.1 hPa | 0 mm | - | 594 W/m² | - |
| 1788128548 | 28.33° C | 20% | 1017 hPa | 0 mm | - | 604 W/m² | - |
| 1788128243 | 28.33° C | 24% | 1017.5 hPa | 0 mm | - | 610 W/m² | - |
| 1788127940 | 28.89° C | 23% | 1017.6 hPa | 0 mm | - | 617 W/m² | - |
| 1788127635 | 27.78° C | 22% | 1017.6 hPa | 0 mm | - | 605 W/m² | - |
| 1788127337 | 28.33° C | 22% | 1017.6 hPa | 0 mm | - | 613 W/m² | - |
| 1788127033 | 27.78° C | 23% | 1017.6 hPa | 0 mm | - | 627 W/m² | - |
| 1788126728 | 28.33° C | 21% | 1017.6 hPa | 0 mm | - | 628 W/m² | - |
| 1788126423 | 28.33° C | 20% | 1017.7 hPa | 0 mm | - | 620 W/m² | - |
| 1788126117 | 27.78° C | 21% | 1017.9 hPa | 0 mm | - | 628 W/m² | - |
| 1788125816 | 27.78° C | 23% | 1017.9 hPa | 0 mm | - | 646 W/m² | - |
* Rain latest hour (hover to see other rain measurements)
** Current wind speed in m/s (hover to see current wind gust speed)